FENGYUN 1C DEB, 31979

Orbit data source: Space-Track

FENGYUN 1C DEB, 31979 is space debris in SSO originally from a launch on Mon, 10 May 1999 UTC launched from the Taiyaun Space Center, China (TSC). Fengyun 1C debris stems from the Chinese weather satellite Fengyun-1C, which was intentionally destroyed by a Chinese anti-satellite missile in 2007. This event dramatically increased the amount of space debris, with thousands of trackable fragments posing hazards to satellites and human spaceflight. The Fengyun 1C debris cloud has become a focal point in discussions about space sustainability and the need for international regulations to prevent the creation of new debris.

Loading next visibility...
Identifier
31979, 1999-025CPG
Orbit
SSO
Country
Flag of CNCN / PRC
Related business
Manufacturer
Unknown
Mission
Spacecraft
Bus & Motor
Unknown
Mass
Unknown
Launch date (UTC)
1999-05-10 (27 years ago)
Launch vehicle
Unknown
Launch site
Taiyaun Space Center, China (TSC)
Object type
Payload
Rocket body
Debris
Shape & HBR
Unknown shape, 0.1 m
Radar Cross Section
Small (<0.1 m²)

Expand to show TLE details & history
Last TLE update: 3 days ago

TLE from 3 days ago
0 FENGYUN 1C DEB
1 31979U 99025CPG 26251.49235534  .00001963  00000-0  17812-2 0  9995
2 31979  99.3768 342.5087 0258810 299.8095  57.7547 13.70772831616061
Epoch: 2026-09-08T11:48Z
TLE epoch observation values (Epoch: 2026-09-08T11:48:59.501Z)
Latitude
-0.00001°
Longitude
177.70279°
Altitude
901.377 km
Speed
7.451 km/s
True Right ascension
22h 50m 02s
True Declination
0° 00' 00"
Sunlit
Object was in full shadow at epoch
Visualization orbit readout
Latitude
Unknown
Longitude
Unknown
Altitude
Unknown
Speed
Unknown
Apparent Right ascension
Unknown
Apparent Declination
Unknown
Sunlit
N/A
Visualization observer readout
Local Sidereal Time
15:31:52
Azimuth
Unknown
Elevation
Unknown
Doppler factor
Unknown
Orbital elements
Apogee altitude
1,184.852 km
Perigee altitude
803.253 km
Semi-major axis
7,372.189 km
Eccentricity
0.02588
Inclination
99.3768°
RAAN
342.5087°
Arg. of periapsis
299.8095°
True anomaly
60.30622°
Mean anomaly
57.7547°
Eccentric anomaly
59.02612°
Mean motion
3.42885 °/min
Orbital period
104.99 mins
BSTAR
0.0017812
Loading maneuver chart data...
Computing Atmospheric mass density...
Loading historical data...
Loading historical data...
Loading historical data...
Loading historical data...
Loading historical data...
Loading historical data...
Loading historical data...

Documentation

Showing up to 5 results
|